Bangkok (Don Mueang), Thailand

8:51 AM +07 on December 13, 2017 (GMT +0700)
Bangkok International

Weather History for VTBD - March, 2014

Change the Weather History Date:

Monday, March 17, 2014

  Actual Average Record
Temperature  
Mean Temperature 88 °F -  
Max Temperature 95 °F 94 °F 98 °F (1997)
Min Temperature 82 °F 77 °F 62 °F (2011)
Cooling Degree Days 24    
Growing Degree Days 38 (Base 50)    
Moisture  
Dew Point 75 °F    
Average Humidity 65    
Maximum Humidity 84    
Minimum Humidity 39    
Precipitation  
Precipitation 0.00 in 0.06 in - ()
Sea Level Pressure  
Sea Level Pressure 29.90 in    
Wind  
Wind Speed 7 mph ()    
Max Wind Speed 14 mph    
Max Gust Speed -    
Visibility 6.2 miles    
Events      
Averages and records for this station are not official NWS values.
T = Trace of Precipitation, MM = Missing Value Source: Averaged Metar Reports

Daily Weather History Graph

Daily Weather History Graph

Search for Another Location

Airport or City:

Trip Planner

Search our weather history database for the weather conditions in past years. The results will help you decide how hot, cold, wet, or windy it might be!

Date:

Astronomy

Mar. 17, 2014 Rise Set
Actual Time 6:24 AM +07 6:28 PM +07
Civil Twilight 6:02 AM +07 6:49 PM +07
Nautical Twilight 5:38 AM +07 7:14 PM +07
Astronomical Twilight 5:13 AM +07 7:38 PM +07
Moon 7:00 PM +07 (3/17) 6:30 AM +07 (3/17)
Length of Visible Light 12h 46m
Length of Day
12h 03m
Full, 100% of the Moon is Illuminated
Mar 17
Full
Mar 24
Last Quarter
Mar 31
New
Apr 7
First Quarter
Apr 15
Full

Hourly Weather History & Observations

Time (+07) Temp. Heat Index Dew Point Humidity Pressure Visibility Wind Dir Wind Speed Gust Speed Precip Events Conditions
12:00 AM 86.0 °F 93.4 °F 73.4 °F 66% 29.92 in 6.2 mi South 8.1 mph - N/A   Mostly Cloudy
12:30 AM 84.2 °F 92.3 °F 75.2 °F 74% 29.92 in 6.2 mi South 6.9 mph - N/A   Mostly Cloudy
1:00 AM 85 °F - 75 °F 65% 29.92 in 6 mi South 6.9 mph - -   Scattered Clouds
1:00 AM 84.2 °F 92.3 °F 75.2 °F 74% 29.92 in 6.2 mi South 6.9 mph - N/A   Mostly Cloudy
1:30 AM 84.2 °F 92.3 °F 75.2 °F 74% 29.92 in 6.2 mi South 8.1 mph - N/A   Mostly Cloudy
2:00 AM 84.2 °F 92.3 °F 75.2 °F 74% 29.89 in 6.2 mi SSW 5.8 mph - N/A   Mostly Cloudy
2:30 AM 84.2 °F 92.3 °F 75.2 °F 74% 29.89 in 6.2 mi SSW 8.1 mph - N/A   Mostly Cloudy
3:00 AM 84.2 °F 92.3 °F 75.2 °F 74% 29.89 in 6.2 mi SSW 5.8 mph - N/A   Mostly Cloudy
3:30 AM 84.2 °F 92.3 °F 75.2 °F 74% 29.89 in 6.2 mi South 5.8 mph - N/A   Mostly Cloudy
4:00 AM 83 °F - 76 °F 73% 29.88 in 6 mi SSW 4.6 mph - -   Scattered Clouds
4:00 AM 82.4 °F 89.5 °F 75.2 °F 79% 29.86 in 6.2 mi SSW 4.6 mph - N/A   Mostly Cloudy
4:30 AM 82.4 °F 89.5 °F 75.2 °F 79% 29.86 in 6.2 mi SSW 4.6 mph - N/A   Mostly Cloudy
5:00 AM 82.4 °F 89.5 °F 75.2 °F 79% 29.89 in 6.2 mi SSW 3.5 mph - N/A   Mostly Cloudy
5:30 AM 82.4 °F 89.5 °F 75.2 °F 79% 29.89 in 6.2 mi SSE 4.6 mph - N/A   Mostly Cloudy
6:00 AM 82.4 °F 90.9 °F 77.0 °F 84% 29.89 in 6.2 mi Calm Calm - N/A   Mostly Cloudy
6:30 AM 82.4 °F 90.9 °F 77.0 °F 84% 29.92 in 6.2 mi South 5.8 mph - N/A   Mostly Cloudy
7:00 AM 83 °F - 76 °F 75% 29.92 in 6 mi Calm Calm - -   Scattered Clouds
7:00 AM 82.4 °F 90.9 °F 77.0 °F 84% 29.92 in 6.2 mi Calm Calm - N/A   Mostly Cloudy
7:30 AM 84.2 °F 94.1 °F 77.0 °F 79% 29.92 in 6.2 mi South 5.8 mph - N/A   Mostly Cloudy
8:00 AM 84.2 °F 94.1 °F 77.0 °F 79% 29.95 in 6.2 mi South 5.8 mph - N/A   Mostly Cloudy
8:30 AM 86.0 °F 96.9 °F 77.0 °F 74% 29.95 in 6.2 mi South 5.8 mph - N/A   Mostly Cloudy
9:00 AM 87.8 °F 97.6 °F 75.2 °F 66% 29.98 in 6.2 mi South 5.8 mph - N/A   Mostly Cloudy
9:30 AM 89.6 °F 99.8 °F 75.2 °F 62% 29.98 in 6.2 mi SSW 5.8 mph - N/A   Mostly Cloudy
10:00 AM 89 °F - 73 °F 50% 29.98 in 6 mi WSW 10.4 mph - -   Scattered Clouds
10:00 AM 89.6 °F 98.2 °F 73.4 °F 59% 29.98 in 6.2 mi WSW 10.4 mph - N/A   Mostly Cloudy
10:30 AM 89.6 °F 98.2 °F 73.4 °F 59% 29.95 in 6.2 mi SSW 6.9 mph - N/A   Mostly Cloudy
11:00 AM 91.4 °F 100.1 °F 73.4 °F 55% 29.95 in 6.2 mi SW 9.2 mph - N/A   Mostly Cloudy
11:30 AM 95.0 °F 104.5 °F 73.4 °F 49% 29.95 in 6.2 mi SW 6.9 mph - N/A   Mostly Cloudy
12:00 PM 93.2 °F 100.5 °F 71.6 °F 49% 29.92 in 6.2 mi SW 8.1 mph - N/A   Mostly Cloudy
12:30 PM 95.0 °F 103.2 °F 71.6 °F 47% 29.92 in 6.2 mi SSW 9.2 mph - N/A   Mostly Cloudy
1:00 PM 96 °F - 73 °F 39% 29.90 in 6 mi SSE 9.2 mph - -   Scattered Clouds
1:00 PM 95.0 °F 104.5 °F 73.4 °F 49% 29.89 in 6.2 mi SSE 9.2 mph - N/A   Mostly Cloudy
1:30 PM 95.0 °F 104.5 °F 73.4 °F 49% 29.86 in 6.2 mi South 11.5 mph - N/A   Mostly Cloudy
2:00 PM 95.0 °F 104.5 °F 73.4 °F 49% 29.86 in 6.2 mi SSW 10.4 mph - N/A   Mostly Cloudy
2:30 PM 93.2 °F 102.4 °F 73.4 °F 52% 29.83 in 6.2 mi South 10.4 mph - N/A   Mostly Cloudy
3:00 PM 93.2 °F 102.4 °F 73.4 °F 52% 29.83 in 6.2 mi SSW 10.4 mph - N/A   Mostly Cloudy
3:30 PM 95.0 °F 104.5 °F 73.4 °F 49% 29.80 in 6.2 mi South 10.4 mph - N/A   Mostly Cloudy
4:00 PM 93 °F - 73 °F 43% 29.82 in 6 mi South 10.4 mph - -   Scattered Clouds
4:00 PM 93.2 °F 102.4 °F 73.4 °F 52% 29.80 in 6.2 mi South 10.4 mph - N/A   Mostly Cloudy
4:30 PM 93.2 °F 102.4 °F 73.4 °F 52% 29.80 in 6.2 mi South 11.5 mph - N/A   Mostly Cloudy
5:00 PM 91.4 °F 100.1 °F 73.4 °F 55% 29.80 in 6.2 mi South 10.4 mph - N/A   Mostly Cloudy
5:30 PM 89.6 °F 99.8 °F 75.2 °F 62% 29.83 in 6.2 mi SSW 11.5 mph - N/A   Mostly Cloudy
6:00 PM 89.6 °F 99.8 °F 75.2 °F 62% 29.83 in 6.2 mi South 11.5 mph - N/A   Mostly Cloudy
6:30 PM 87.8 °F 95.6 °F 73.4 °F 62% 29.86 in 6.2 mi South 9.2 mph - N/A   Mostly Cloudy
7:00 PM 86 °F - 74 °F 59% 29.88 in 6 mi SSW 9.2 mph - -   Scattered Clouds
7:00 PM 86.0 °F 93.4 °F 73.4 °F 66% 29.86 in 6.2 mi SSW 9.2 mph - N/A   Mostly Cloudy
7:30 PM 86.0 °F 93.4 °F 73.4 °F 66% 29.89 in 6.2 mi South 9.2 mph - N/A   Mostly Cloudy
8:00 PM 86.0 °F 95.1 °F 75.2 °F 70% 29.92 in 6.2 mi South 9.2 mph - N/A   Mostly Cloudy
8:30 PM 86.0 °F 95.1 °F 75.2 °F 70% 29.95 in 6.2 mi East 3.5 mph - N/A   Mostly Cloudy
9:00 PM 86.0 °F 95.1 °F 75.2 °F 70% 29.92 in 6.2 mi SSE 10.4 mph - N/A   Mostly Cloudy
9:30 PM 84.2 °F 92.3 °F 75.2 °F 74% 29.92 in 6.2 mi SSW 11.5 mph - N/A   Mostly Cloudy
10:00 PM 85 °F - 74 °F 63% 29.93 in 6 mi SSW 10.4 mph - -   Scattered Clouds
10:00 PM 84.2 °F 92.3 °F 75.2 °F 74% 29.92 in 6.2 mi SSW 10.4 mph - N/A   Mostly Cloudy
10:30 PM 84.2 °F 90.9 °F 73.4 °F 70% 29.92 in 6.2 mi SSW 12.7 mph - N/A   Mostly Cloudy
11:00 PM 84.2 °F 92.3 °F 75.2 °F 74% 29.92 in 6.2 mi South 10.4 mph - N/A   Mostly Cloudy
11:30 PM 84.2 °F 92.3 °F 75.2 °F 74% 29.95 in 6.2 mi South 13.8 mph - N/A   Scattered Clouds